Time,TemperatureF,DewpointF,PressureIn,WindDirection,WindDirectionDegrees,WindSpeedMPH,WindSpeedGustMPH,Humidity,HourlyPrecipIn,Conditions,Clouds,dailyrainin,SoftwareType,DateUTC
2013-07-17 00:01:00,79.0,71.9,30.23,SW,225,0.0,0.0,79,0.00,,,0.00,Weather View 32 v70,2013-07-17 04:01:00,
2013-07-17 00:06:00,78.0,70.9,30.23,SW,225,0.0,0.0,79,0.00,,,0.00,Weather View 32 v70,2013-07-17 04:06:00,
2013-07-17 00:11:00,78.0,70.9,30.23,SW,225,0.0,0.0,79,0.00,,,0.00,Weather View 32 v70,2013-07-17 04:11:00,
2013-07-17 00:16:00,78.0,70.9,30.23,SW,225,0.0,0.0,79,0.00,,,0.00,Weather View 32 v70,2013-07-17 04:16:00,
2013-07-17 00:17:00,78.0,70.9,30.23,SW,225,0.0,0.0,79,0.00,,,0.00,Weather View 32 v70,2013-07-17 04:17:00,
2013-07-17 00:26:00,78.0,70.9,30.24,SW,225,0.0,0.0,79,0.00,,,0.00,Weather View 32 v70,2013-07-17 04:26:00,
2013-07-17 00:31:00,78.0,70.9,30.23,SW,225,0.0,0.0,79,0.00,,,0.00,Weather View 32 v70,2013-07-17 04:31:00,
2013-07-17 00:36:00,78.0,70.9,30.23,SW,225,0.0,0.0,79,0.00,,,0.00,Weather View 32 v70,2013-07-17 04:36:00,
2013-07-17 00:46:00,78.0,70.6,30.23,SW,225,0.0,0.0,78,0.00,,,0.00,Weather View 32 v70,2013-07-17 04:46:00,
2013-07-17 00:51:00,78.0,70.6,30.23,SW,225,0.0,0.0,78,0.00,,,0.00,Weather View 32 v70,2013-07-17 04:51:00,
2013-07-17 00:56:00,78.0,70.6,30.23,SW,225,0.0,0.0,78,0.00,,,0.00,Weather View 32 v70,2013-07-17 04:56:00,
2013-07-17 01:01:00,78.0,70.6,30.23,SW,225,0.0,0.0,78,0.00,,,0.00,Weather View 32 v70,2013-07-17 05:01:00,
2013-07-17 01:06:00,77.0,69.6,30.23,SW,225,0.0,0.0,78,0.00,,,0.00,Weather View 32 v70,2013-07-17 05:06:00,
2013-07-17 01:11:00,77.0,69.6,30.24,SW,225,0.0,0.0,78,0.00,,,0.00,Weather View 32 v70,2013-07-17 05:11:00,
2013-07-17 01:16:00,77.0,69.6,30.24,SW,225,0.0,0.0,78,0.00,,,0.00,Weather View 32 v70,2013-07-17 05:16:00,
2013-07-17 01:21:00,77.0,69.6,30.24,SW,225,0.0,0.0,78,0.00,,,0.00,Weather View 32 v70,2013-07-17 05:21:00,
2013-07-17 01:26:00,77.0,69.6,30.24,SW,225,0.0,0.0,78,0.00,,,0.00,Weather View 32 v70,2013-07-17 05:26:00,
2013-07-17 01:31:00,77.0,69.2,30.22,SW,225,0.0,0.0,77,0.00,,,0.00,Weather View 32 v70,2013-07-17 05:31:00,
2013-07-17 01:36:00,77.0,69.6,30.22,SW,225,0.0,0.0,78,0.00,,,0.00,Weather View 32 v70,2013-07-17 05:36:00,
2013-07-17 01:46:00,77.0,69.6,30.22,SW,225,0.0,0.0,78,0.00,,,0.00,Weather View 32 v70,2013-07-17 05:46:00,
2013-07-17 01:51:00,77.0,69.6,30.24,SW,225,0.0,0.0,78,0.00,,,0.00,Weather View 32 v70,2013-07-17 05:51:00,
2013-07-17 01:56:00,77.0,69.2,30.24,SW,225,0.0,0.0,77,0.00,,,0.00,Weather View 32 v70,2013-07-17 05:56:00,
2013-07-17 02:01:00,77.0,69.6,30.23,SW,225,0.0,0.0,78,0.00,,,0.00,Weather View 32 v70,2013-07-17 06:01:00,
2013-07-17 02:06:00,77.0,69.2,30.23,SW,225,0.0,0.0,77,0.00,,,0.00,Weather View 32 v70,2013-07-17 06:06:00,
2013-07-17 02:11:00,77.0,69.6,30.23,SW,225,0.0,0.0,78,0.00,,,0.00,Weather View 32 v70,2013-07-17 06:11:00,
2013-07-17 02:18:00,77.0,69.6,30.23,SW,225,0.0,0.0,78,0.00,,,0.00,Weather View 32 v70,2013-07-17 06:18:00,
2013-07-17 02:26:00,77.0,69.6,30.23,SW,225,0.0,0.0,78,0.00,,,0.00,Weather View 32 v70,2013-07-17 06:26:00,
2013-07-17 02:31:00,77.0,69.6,30.22,SW,225,0.0,0.0,78,0.00,,,0.00,Weather View 32 v70,2013-07-17 06:31:00,
2013-07-17 02:36:00,77.0,69.6,30.22,SW,225,0.0,0.0,78,0.00,,,0.00,Weather View 32 v70,2013-07-17 06:36:00,
2013-07-17 02:41:00,77.0,69.6,30.22,SW,225,0.0,0.0,78,0.00,,,0.00,Weather View 32 v70,2013-07-17 06:41:00,
2013-07-17 02:46:00,77.0,69.6,30.22,SW,225,0.0,0.0,78,0.00,,,0.00,Weather View 32 v70,2013-07-17 06:46:00,
2013-07-17 02:56:00,77.0,69.2,30.23,SW,225,0.0,0.0,77,0.00,,,0.00,Weather View 32 v70,2013-07-17 06:56:00,
2013-07-17 03:01:00,77.0,69.2,30.22,SW,225,0.0,0.0,77,0.00,,,0.00,Weather View 32 v70,2013-07-17 07:01:00,
2013-07-17 03:06:00,77.0,69.2,30.22,SW,225,0.0,0.0,77,0.00,,,0.00,Weather View 32 v70,2013-07-17 07:06:00,
2013-07-17 03:11:00,77.0,69.2,30.22,SW,225,0.0,0.0,77,0.00,,,0.00,Weather View 32 v70,2013-07-17 07:11:00,
2013-07-17 03:18:00,77.0,69.2,30.22,SW,225,0.0,0.0,77,0.00,,,0.00,Weather View 32 v70,2013-07-17 07:18:00,
2013-07-17 03:26:00,77.0,69.2,30.22,SW,225,0.0,0.0,77,0.00,,,0.00,Weather View 32 v70,2013-07-17 07:26:00,
2013-07-17 03:36:00,77.0,69.2,30.22,SW,225,0.0,0.0,77,0.00,,,0.00,Weather View 32 v70,2013-07-17 07:36:00,
2013-07-17 03:41:00,77.0,69.2,30.22,SW,225,0.0,0.0,77,0.00,,,0.00,Weather View 32 v70,2013-07-17 07:41:00,
2013-07-17 03:46:00,77.0,69.2,30.22,SW,225,0.0,0.0,77,0.00,,,0.00,Weather View 32 v70,2013-07-17 07:46:00,
2013-07-17 03:51:00,77.0,69.2,30.22,SW,225,0.0,0.0,77,0.00,,,0.00,Weather View 32 v70,2013-07-17 07:51:00,
2013-07-17 04:01:00,77.0,69.2,30.22,SW,225,0.0,0.0,77,0.00,,,0.00,Weather View 32 v70,2013-07-17 08:01:00,
2013-07-17 04:06:00,77.0,69.2,30.22,SW,225,0.0,0.0,77,0.00,,,0.00,Weather View 32 v70,2013-07-17 08:06:00,
2013-07-17 04:11:00,77.0,69.2,30.22,SW,225,0.0,0.0,77,0.00,,,0.00,Weather View 32 v70,2013-07-17 08:11:00,
2013-07-17 04:16:00,76.0,68.2,30.22,SW,225,0.0,0.0,77,0.00,,,0.00,Weather View 32 v70,2013-07-17 08:16:00,
2013-07-17 04:21:00,76.0,68.2,30.23,SW,225,0.0,0.0,77,0.00,,,0.00,Weather View 32 v70,2013-07-17 08:21:00,
2013-07-17 04:26:00,76.0,68.2,30.23,SW,225,0.0,0.0,77,0.00,,,0.00,Weather View 32 v70,2013-07-17 08:26:00,
2013-07-17 04:31:00,76.0,68.2,30.23,SW,225,0.0,0.0,77,0.00,,,0.00,Weather View 32 v70,2013-07-17 08:31:00,
2013-07-17 04:41:00,76.0,68.2,30.22,SW,225,0.0,0.0,77,0.00,,,0.00,Weather View 32 v70,2013-07-17 08:41:00,
2013-07-17 04:46:00,76.0,68.2,30.22,SW,225,0.0,0.0,77,0.00,,,0.00,Weather View 32 v70,2013-07-17 08:46:00,
2013-07-17 04:51:00,76.0,67.9,30.23,SW,225,0.0,0.0,76,0.00,,,0.00,Weather View 32 v70,2013-07-17 08:51:00,
2013-07-17 05:01:00,76.0,67.9,30.22,SW,225,0.0,0.0,76,0.00,,,0.00,Weather View 32 v70,2013-07-17 09:01:00,
2013-07-17 05:06:00,76.0,67.9,30.22,SW,225,0.0,0.0,76,0.00,,,0.00,Weather View 32 v70,2013-07-17 09:06:00,
2013-07-17 05:11:00,76.0,67.9,30.22,SW,225,0.0,0.0,76,0.00,,,0.00,Weather View 32 v70,2013-07-17 09:11:00,
2013-07-17 05:16:00,76.0,67.9,30.22,SW,225,0.0,0.0,76,0.00,,,0.00,Weather View 32 v70,2013-07-17 09:16:00,
2013-07-17 05:26:00,76.0,67.9,30.22,SW,225,0.0,0.0,76,0.00,,,0.00,Weather View 32 v70,2013-07-17 09:26:00,
2013-07-17 05:31:00,76.0,67.5,30.22,SW,225,0.0,0.0,75,0.00,,,0.00,Weather View 32 v70,2013-07-17 09:31:00,
2013-07-17 05:36:00,76.0,67.9,30.22,SW,225,0.0,0.0,76,0.00,,,0.00,Weather View 32 v70,2013-07-17 09:36:00,
2013-07-17 05:41:00,76.0,67.5,30.23,SW,225,0.0,0.0,75,0.00,,,0.00,Weather View 32 v70,2013-07-17 09:41:00,
2013-07-17 05:46:00,75.0,66.1,30.23,SW,225,0.0,0.0,74,0.00,,,0.00,Weather View 32 v70,2013-07-17 09:46:00,
2013-07-17 05:51:00,76.0,67.1,30.23,SW,225,0.0,0.0,74,0.00,,,0.00,Weather View 32 v70,2013-07-17 09:51:00,
2013-07-17 05:56:00,75.0,65.7,30.23,SW,225,0.0,0.0,73,0.00,,,0.00,Weather View 32 v70,2013-07-17 09:56:00,
2013-07-17 06:06:00,75.0,65.7,30.23,SW,225,0.0,0.0,73,0.00,,,0.00,Weather View 32 v70,2013-07-17 10:06:00,
2013-07-17 06:11:00,75.0,65.3,30.24,SW,225,0.0,0.0,72,0.00,,,0.00,Weather View 32 v70,2013-07-17 10:11:00,
2013-07-17 06:16:00,75.0,65.3,30.24,SW,225,0.0,0.0,72,0.00,,,0.00,Weather View 32 v70,2013-07-17 10:16:00,
2013-07-17 06:21:00,75.0,64.9,30.24,SW,225,0.0,0.0,71,0.00,,,0.00,Weather View 32 v70,2013-07-17 10:21:00,
2013-07-17 06:26:00,75.0,64.9,30.24,SW,225,0.0,0.0,71,0.00,,,0.00,Weather View 32 v70,2013-07-17 10:26:00,
2013-07-17 06:31:00,75.0,64.9,30.24,SW,225,0.0,0.0,71,0.00,,,0.00,Weather View 32 v70,2013-07-17 10:31:00,
2013-07-17 06:41:00,75.0,64.5,30.25,SW,225,0.0,0.0,70,0.00,,,0.00,Weather View 32 v70,2013-07-17 10:41:00,
2013-07-17 06:46:00,75.0,64.5,30.25,SW,225,0.0,0.0,70,0.00,,,0.00,Weather View 32 v70,2013-07-17 10:46:00,
2013-07-17 06:51:00,75.0,64.5,30.25,SW,225,0.0,0.0,70,0.00,,,0.00,Weather View 32 v70,2013-07-17 10:51:00,
2013-07-17 06:56:00,75.0,64.5,30.25,SW,225,0.0,0.0,70,0.00,,,0.00,Weather View 32 v70,2013-07-17 10:56:00,
2013-07-17 07:01:00,75.0,64.5,30.25,SW,225,0.0,0.0,70,0.00,,,0.00,Weather View 32 v70,2013-07-17 11:01:00,
2013-07-17 07:06:00,75.0,64.1,30.25,SW,225,0.0,0.0,69,0.00,,,0.00,Weather View 32 v70,2013-07-17 11:06:00,
2013-07-17 07:16:00,76.0,65.5,30.24,SW,225,0.0,0.0,70,0.00,,,0.00,Weather View 32 v70,2013-07-17 11:16:00,
2013-07-17 07:21:00,76.0,65.9,30.24,SW,225,0.0,0.0,71,0.00,,,0.00,Weather View 32 v70,2013-07-17 11:21:00,
2013-07-17 07:26:00,76.0,65.9,30.24,SW,225,0.0,0.0,71,0.00,,,0.00,Weather View 32 v70,2013-07-17 11:26:00,
2013-07-17 07:31:00,76.0,65.9,30.24,SW,225,0.0,0.0,71,0.00,,,0.00,Weather View 32 v70,2013-07-17 11:31:00,
2013-07-17 07:41:00,76.0,65.9,30.24,SW,225,0.0,0.0,71,0.00,,,0.00,Weather View 32 v70,2013-07-17 11:41:00,
2013-07-17 07:46:00,76.0,65.9,30.24,SW,225,0.0,0.0,71,0.00,,,0.00,Weather View 32 v70,2013-07-17 11:46:00,
2013-07-17 07:51:00,77.0,66.8,30.24,SW,225,0.0,0.0,71,0.00,,,0.00,Weather View 32 v70,2013-07-17 11:51:00,
2013-07-17 07:56:00,77.0,66.8,30.24,SW,225,0.0,0.0,71,0.00,,,0.00,Weather View 32 v70,2013-07-17 11:56:00,
2013-07-17 08:01:00,77.0,66.8,30.23,SW,225,0.0,0.0,71,0.00,,,0.00,Weather View 32 v70,2013-07-17 12:01:00,
2013-07-17 08:11:00,78.0,67.8,30.24,SW,225,0.0,0.0,71,0.00,,,0.00,Weather View 32 v70,2013-07-17 12:11:00,
2013-07-17 08:16:00,78.0,67.8,30.24,SW,225,0.0,0.0,71,0.00,,,0.00,Weather View 32 v70,2013-07-17 12:16:00,
2013-07-17 08:21:00,78.0,67.8,30.24,SW,225,0.0,0.0,71,0.00,,,0.00,Weather View 32 v70,2013-07-17 12:21:00,
2013-07-17 08:31:00,79.0,68.3,30.24,West,270,0.0,0.0,70,0.00,,,0.00,Weather View 32 v70,2013-07-17 12:31:00,
2013-07-17 08:36:00,79.0,68.3,30.24,West,270,0.0,0.0,70,0.00,,,0.00,Weather View 32 v70,2013-07-17 12:36:00,
2013-07-17 08:41:00,80.0,69.7,30.24,West,270,0.0,0.0,71,0.00,,,0.00,Weather View 32 v70,2013-07-17 12:41:00,
2013-07-17 08:46:00,80.0,70.1,30.24,West,270,0.0,0.0,72,0.00,,,0.00,Weather View 32 v70,2013-07-17 12:46:00,
2013-07-17 08:51:00,80.0,70.9,30.24,West,270,0.0,0.0,74,0.00,,,0.00,Weather View 32 v70,2013-07-17 12:51:00,
2013-07-17 08:56:00,80.0,71.7,30.24,West,270,0.0,0.0,76,0.00,,,0.00,Weather View 32 v70,2013-07-17 12:56:00,
2013-07-17 09:06:00,81.0,73.8,30.25,West,270,0.0,0.0,79,0.00,,,0.00,Weather View 32 v70,2013-07-17 13:06:00,
2013-07-17 09:11:00,81.0,73.8,30.24,West,270,0.0,0.0,79,0.00,,,0.00,Weather View 32 v70,2013-07-17 13:11:00,
2013-07-17 09:16:00,81.0,73.8,30.24,West,270,0.0,0.0,79,0.00,,,0.00,Weather View 32 v70,2013-07-17 13:16:00,
2013-07-17 09:22:00,81.0,74.2,30.24,West,270,0.0,0.0,80,0.00,,,0.00,Weather View 32 v70,2013-07-17 13:22:00,
2013-07-17 09:31:00,82.0,75.6,30.24,West,270,0.0,0.0,81,0.00,,,0.00,Weather View 32 v70,2013-07-17 13:31:00,
2013-07-17 09:36:00,82.0,75.6,30.24,West,270,0.0,0.0,81,0.00,,,0.00,Weather View 32 v70,2013-07-17 13:36:00,
2013-07-17 09:41:00,82.0,75.6,30.24,West,270,0.0,0.0,81,0.00,,,0.00,Weather View 32 v70,2013-07-17 13:41:00,
2013-07-17 09:46:00,83.0,76.5,30.24,West,270,0.0,0.0,81,0.00,,,0.00,Weather View 32 v70,2013-07-17 13:46:00,
2013-07-17 09:51:00,83.0,76.5,30.23,West,270,0.0,0.0,81,0.00,,,0.00,Weather View 32 v70,2013-07-17 13:51:00,
2013-07-17 09:56:00,83.0,76.5,30.23,West,270,0.0,0.0,81,0.00,,,0.00,Weather View 32 v70,2013-07-17 13:56:00,
2013-07-17 10:06:00,84.0,77.9,30.23,West,270,0.0,0.0,82,0.00,,,0.00,Weather View 32 v70,2013-07-17 14:06:00,
2013-07-17 10:11:00,84.0,77.9,30.23,West,270,0.0,0.0,82,0.00,,,0.00,Weather View 32 v70,2013-07-17 14:11:00,
2013-07-17 10:16:00,84.0,77.9,30.23,West,270,0.0,0.0,82,0.00,,,0.00,Weather View 32 v70,2013-07-17 14:16:00,
2013-07-17 10:21:00,85.0,78.9,30.23,West,270,0.0,0.0,82,0.00,,,0.00,Weather View 32 v70,2013-07-17 14:21:00,
2013-07-17 10:26:00,85.0,78.9,30.23,West,270,0.0,0.0,82,0.00,,,0.00,Weather View 32 v70,2013-07-17 14:26:00,
2013-07-17 10:31:00,86.0,80.2,30.22,West,270,0.0,0.0,83,0.00,,,0.00,Weather View 32 v70,2013-07-17 14:31:00,
2013-07-17 10:41:00,88.0,82.2,30.21,West,270,0.0,0.0,83,0.00,,,0.00,Weather View 32 v70,2013-07-17 14:41:00,
2013-07-17 10:46:00,90.0,84.1,30.21,West,270,0.0,0.0,83,0.00,,,0.00,Weather View 32 v70,2013-07-17 14:46:00,
2013-07-17 10:51:00,91.0,85.1,30.21,West,270,0.0,0.0,83,0.00,,,0.00,Weather View 32 v70,2013-07-17 14:51:00,
2013-07-17 11:01:00,93.0,87.4,30.20,West,270,0.0,0.0,84,0.00,,,0.00,Weather View 32 v70,2013-07-17 15:01:00,
2013-07-17 11:06:00,94.0,88.4,30.20,West,270,0.0,0.0,84,0.00,,,0.00,Weather View 32 v70,2013-07-17 15:06:00,
2013-07-17 11:11:00,94.0,88.4,30.20,East,90,0.0,0.0,84,0.00,,,0.00,Weather View 32 v70,2013-07-17 15:11:00,
2013-07-17 11:21:00,96.0,90.3,30.19,East,90,0.0,0.0,84,0.00,,,0.00,Weather View 32 v70,2013-07-17 15:21:00,
2013-07-17 11:26:00,97.0,91.7,30.19,East,90,0.0,0.0,85,0.00,,,0.00,Weather View 32 v70,2013-07-17 15:26:00,
2013-07-17 11:31:00,97.0,91.3,30.18,East,90,0.0,0.0,84,0.00,,,0.00,Weather View 32 v70,2013-07-17 15:31:00,
2013-07-17 11:36:00,98.0,92.3,30.18,East,90,0.0,0.0,84,0.00,,,0.00,Weather View 32 v70,2013-07-17 15:36:00,
2013-07-17 11:46:00,97.0,91.3,30.19,East,90,0.0,0.0,84,0.00,,,0.00,Weather View 32 v70,2013-07-17 15:46:00,
2013-07-17 11:51:00,96.0,90.3,30.20,East,90,0.0,0.0,84,0.00,,,0.00,Weather View 32 v70,2013-07-17 15:51:00,
2013-07-17 11:56:00,96.0,90.3,30.20,East,90,0.0,0.0,84,0.00,,,0.00,Weather View 32 v70,2013-07-17 15:56:00,
2013-07-17 12:01:00,96.0,90.3,30.20,East,90,0.0,0.0,84,0.00,,,0.00,Weather View 32 v70,2013-07-17 16:01:00,
2013-07-17 12:06:00,95.0,89.4,30.20,SE,135,0.0,0.0,84,0.00,,,0.00,Weather View 32 v70,2013-07-17 16:06:00,
2013-07-17 12:11:00,96.0,90.3,30.20,SE,135,0.0,0.0,84,0.00,,,0.00,Weather View 32 v70,2013-07-17 16:11:00,
2013-07-17 12:21:00,97.0,91.3,30.19,East,90,0.0,0.0,84,0.00,,,0.00,Weather View 32 v70,2013-07-17 16:21:00,
2013-07-17 12:26:00,97.0,91.3,30.19,NW,315,0.0,0.0,84,0.00,,,0.00,Weather View 32 v70,2013-07-17 16:26:00,
2013-07-17 12:31:00,98.0,92.3,30.18,SE,135,0.0,0.0,84,0.00,,,0.00,Weather View 32 v70,2013-07-17 16:31:00,
2013-07-17 12:36:00,98.0,92.3,30.18,SE,135,0.0,0.0,84,0.00,,,0.00,Weather View 32 v70,2013-07-17 16:36:00,
2013-07-17 12:41:00,98.0,92.3,30.19,West,270,0.0,0.0,84,0.00,,,0.00,Weather View 32 v70,2013-07-17 16:41:00,
2013-07-17 12:51:00,98.0,92.3,30.19,South,180,0.0,0.0,84,0.00,,,0.00,Weather View 32 v70,2013-07-17 16:51:00,
2013-07-17 12:56:00,98.0,92.3,30.19,South,180,0.0,0.0,84,0.00,,,0.00,Weather View 32 v70,2013-07-17 16:56:00,
2013-07-17 13:01:00,98.0,92.3,30.18,West,270,0.0,0.0,84,0.00,,,0.00,Weather View 32 v70,2013-07-17 17:01:00,
2013-07-17 13:06:00,98.0,92.3,30.18,West,270,0.0,0.0,84,0.00,,,0.00,Weather View 32 v70,2013-07-17 17:06:00,
2013-07-17 13:11:00,98.0,92.3,30.18,WNW,292,0.0,0.0,84,0.00,,,0.00,Weather View 32 v70,2013-07-17 17:11:00,
2013-07-17 13:21:00,98.0,92.3,30.17,SW,225,0.0,0.0,84,0.00,,,0.00,Weather View 32 v70,2013-07-17 17:21:00,
2013-07-17 13:26:00,99.0,93.3,30.17,SW,225,0.0,0.0,84,0.00,,,0.00,Weather View 32 v70,2013-07-17 17:26:00,
2013-07-17 13:31:00,99.0,93.3,30.17,SW,225,0.0,0.0,84,0.00,,,0.00,Weather View 32 v70,2013-07-17 17:31:00,
2013-07-17 13:36:00,99.0,93.3,30.17,SE,135,0.0,0.0,84,0.00,,,0.00,Weather View 32 v70,2013-07-17 17:36:00,
2013-07-17 13:46:00,99.0,93.3,30.16,West,270,0.0,0.0,84,0.00,,,0.00,Weather View 32 v70,2013-07-17 17:46:00,
2013-07-17 13:51:00,100.0,94.6,30.16,West,270,0.0,0.0,85,0.00,,,0.00,Weather View 32 v70,2013-07-17 17:51:00,
2013-07-17 13:56:00,100.0,94.6,30.16,West,270,0.0,0.0,85,0.00,,,0.00,Weather View 32 v70,2013-07-17 17:56:00,
2013-07-17 14:01:00,100.0,94.6,30.16,NW,315,0.0,0.0,85,0.00,,,0.00,Weather View 32 v70,2013-07-17 18:01:00,
2013-07-17 14:06:00,100.0,94.6,30.16,West,270,0.0,0.0,85,0.00,,,0.00,Weather View 32 v70,2013-07-17 18:06:00,
2013-07-17 14:11:00,100.0,94.6,30.15,East,90,0.0,0.0,85,0.00,,,0.00,Weather View 32 v70,2013-07-17 18:11:00,
2013-07-17 14:21:00,100.0,94.6,30.15,West,270,0.0,0.0,85,0.00,,,0.00,Weather View 32 v70,2013-07-17 18:21:00,
2013-07-17 14:26:00,100.0,94.6,30.15,West,270,0.0,0.0,85,0.00,,,0.00,Weather View 32 v70,2013-07-17 18:26:00,
2013-07-17 14:31:00,101.0,95.6,30.14,West,270,0.0,0.0,85,0.00,,,0.00,Weather View 32 v70,2013-07-17 18:31:00,
2013-07-17 14:41:00,101.0,95.6,30.14,West,270,0.0,0.0,85,0.00,,,0.00,Weather View 32 v70,2013-07-17 18:41:00,
2013-07-17 14:46:00,101.0,95.6,30.14,West,270,0.0,0.0,85,0.00,,,0.00,Weather View 32 v70,2013-07-17 18:46:00,
2013-07-17 14:51:00,101.0,95.6,30.15,NW,315,0.0,0.0,85,0.00,,,0.00,Weather View 32 v70,2013-07-17 18:51:00,
2013-07-17 15:01:00,101.0,95.6,30.14,NE,45,0.0,0.0,85,0.00,,,0.00,Weather View 32 v70,2013-07-17 19:01:00,
2013-07-17 15:06:00,101.0,95.6,30.14,WNW,292,0.0,0.0,85,0.00,,,0.00,Weather View 32 v70,2013-07-17 19:06:00,
2013-07-17 15:11:00,100.0,94.6,30.14,East,90,0.0,0.0,85,0.00,,,0.00,Weather View 32 v70,2013-07-17 19:11:00,
2013-07-17 15:16:00,101.0,95.6,30.14,SE,135,0.0,0.0,85,0.00,,,0.00,Weather View 32 v70,2013-07-17 19:16:00,
2013-07-17 15:21:00,101.0,95.6,30.14,SW,225,0.0,0.0,85,0.00,,,0.00,Weather View 32 v70,2013-07-17 19:21:00,
2013-07-17 15:31:00,101.0,95.6,30.12,South,180,0.0,0.0,85,0.00,,,0.00,Weather View 32 v70,2013-07-17 19:31:00,
2013-07-17 15:36:00,101.0,95.6,30.12,South,180,0.0,0.0,85,0.00,,,0.00,Weather View 32 v70,2013-07-17 19:36:00,
2013-07-17 15:41:00,101.0,95.6,30.13,South,180,0.0,0.0,85,0.00,,,0.00,Weather View 32 v70,2013-07-17 19:41:00,
2013-07-17 15:46:00,101.0,95.6,30.13,West,270,0.0,0.0,85,0.00,,,0.00,Weather View 32 v70,2013-07-17 19:46:00,
2013-07-17 15:51:00,101.0,96.0,30.13,SE,135,0.0,0.0,86,0.00,,,0.00,Weather View 32 v70,2013-07-17 19:51:00,
2013-07-17 15:56:00,101.0,95.6,30.13,SE,135,0.0,0.0,85,0.00,,,0.00,Weather View 32 v70,2013-07-17 19:56:00,
2013-07-17 16:01:00,101.0,96.0,30.12,SE,135,0.0,0.0,86,0.00,,,0.00,Weather View 32 v70,2013-07-17 20:01:00,
2013-07-17 16:11:00,100.0,95.0,30.12,West,270,0.0,0.0,86,0.00,,,0.00,Weather View 32 v70,2013-07-17 20:11:00,
2013-07-17 16:16:00,100.0,94.6,30.12,West,270,0.0,0.0,85,0.00,,,0.00,Weather View 32 v70,2013-07-17 20:16:00,
2013-07-17 16:21:00,100.0,95.0,30.12,West,270,0.0,0.0,86,0.00,,,0.00,Weather View 32 v70,2013-07-17 20:21:00,
2013-07-17 16:26:00,100.0,95.0,30.12,West,270,0.0,0.0,86,0.00,,,0.00,Weather View 32 v70,2013-07-17 20:26:00,
2013-07-17 16:31:00,100.0,94.6,30.11,West,270,0.0,0.0,85,0.00,,,0.00,Weather View 32 v70,2013-07-17 20:31:00,
2013-07-17 16:36:00,100.0,95.0,30.11,West,270,0.0,0.0,86,0.00,,,0.00,Weather View 32 v70,2013-07-17 20:36:00,
2013-07-17 16:41:00,100.0,94.6,30.11,West,270,0.0,0.0,85,0.00,,,0.00,Weather View 32 v70,2013-07-17 20:41:00,
2013-07-17 16:46:00,100.0,94.6,30.11,West,270,0.0,0.0,85,0.00,,,0.00,Weather View 32 v70,2013-07-17 20:46:00,
2013-07-17 16:56:00,99.0,93.7,30.11,West,270,0.0,0.0,85,0.00,,,0.00,Weather View 32 v70,2013-07-17 20:56:00,
2013-07-17 17:01:00,98.0,92.7,30.10,SW,225,0.0,0.0,85,0.00,,,0.00,Weather View 32 v70,2013-07-17 21:01:00,
2013-07-17 17:06:00,98.0,92.7,30.10,West,270,0.0,0.0,85,0.00,,,0.00,Weather View 32 v70,2013-07-17 21:06:00,
2013-07-17 17:11:00,97.0,91.7,30.11,West,270,0.0,0.0,85,0.00,,,0.00,Weather View 32 v70,2013-07-17 21:11:00,
2013-07-17 17:21:00,96.0,90.3,30.12,West,270,0.0,0.0,84,0.00,,,0.00,Weather View 32 v70,2013-07-17 21:21:00,
2013-07-17 17:26:00,95.0,89.4,30.12,West,270,0.0,0.0,84,0.00,,,0.00,Weather View 32 v70,2013-07-17 21:26:00,
2013-07-17 17:36:00,94.0,88.4,30.11,West,270,0.0,0.0,84,0.00,,,0.00,Weather View 32 v70,2013-07-17 21:36:00,
2013-07-17 17:41:00,93.0,87.4,30.11,West,270,0.0,0.0,84,0.00,,,0.00,Weather View 32 v70,2013-07-17 21:41:00,
2013-07-17 17:46:00,92.0,86.4,30.11,West,270,0.0,0.0,84,0.00,,,0.00,Weather View 32 v70,2013-07-17 21:46:00,
2013-07-17 17:51:00,92.0,86.4,30.11,West,270,0.0,0.0,84,0.00,,,0.00,Weather View 32 v70,2013-07-17 21:51:00,
2013-07-17 18:01:00,91.0,85.1,30.12,West,270,0.0,0.0,83,0.00,,,0.00,Weather View 32 v70,2013-07-17 22:01:00,
2013-07-17 18:06:00,90.0,84.1,30.12,West,270,0.0,0.0,83,0.00,,,0.00,Weather View 32 v70,2013-07-17 22:06:00,
2013-07-17 18:11:00,90.0,84.1,30.12,West,270,0.0,0.0,83,0.00,,,0.00,Weather View 32 v70,2013-07-17 22:11:00,
2013-07-17 18:16:00,89.0,83.1,30.12,West,270,0.0,0.0,83,0.00,,,0.00,Weather View 32 v70,2013-07-17 22:16:00,
2013-07-17 18:21:00,89.0,83.1,30.12,West,270,0.0,0.0,83,0.00,,,0.00,Weather View 32 v70,2013-07-17 22:21:00,
2013-07-17 18:26:00,89.0,83.1,30.12,West,270,0.0,0.0,83,0.00,,,0.00,Weather View 32 v70,2013-07-17 22:26:00,
2013-07-17 18:36:00,88.0,82.2,30.12,West,270,0.0,0.0,83,0.00,,,0.00,Weather View 32 v70,2013-07-17 22:36:00,
2013-07-17 18:41:00,88.0,82.2,30.12,West,270,0.0,0.0,83,0.00,,,0.00,Weather View 32 v70,2013-07-17 22:41:00,
2013-07-17 18:46:00,87.0,81.2,30.12,West,270,0.0,0.0,83,0.00,,,0.00,Weather View 32 v70,2013-07-17 22:46:00,
2013-07-17 18:51:00,87.0,81.2,30.12,West,270,0.0,0.0,83,0.00,,,0.00,Weather View 32 v70,2013-07-17 22:51:00,
2013-07-17 18:56:00,87.0,81.2,30.12,West,270,0.0,0.0,83,0.00,,,0.00,Weather View 32 v70,2013-07-17 22:56:00,
2013-07-17 19:06:00,86.0,79.8,30.12,West,270,0.0,0.0,82,0.00,,,0.00,Weather View 32 v70,2013-07-17 23:06:00,
2013-07-17 19:11:00,86.0,79.8,30.12,West,270,0.0,0.0,82,0.00,,,0.00,Weather View 32 v70,2013-07-17 23:11:00,
2013-07-17 19:21:00,86.0,79.8,30.14,West,270,0.0,0.0,82,0.00,,,0.00,Weather View 32 v70,2013-07-17 23:21:00,
2013-07-17 19:26:00,86.0,79.8,30.14,West,270,0.0,0.0,82,0.00,,,0.00,Weather View 32 v70,2013-07-17 23:26:00,
2013-07-17 19:31:00,85.0,78.9,30.14,West,270,0.0,0.0,82,0.00,,,0.00,Weather View 32 v70,2013-07-17 23:31:00,
2013-07-17 19:36:00,85.0,78.9,30.14,West,270,0.0,0.0,82,0.00,,,0.00,Weather View 32 v70,2013-07-17 23:36:00,
2013-07-17 19:41:00,85.0,78.9,30.14,West,270,0.0,0.0,82,0.00,,,0.00,Weather View 32 v70,2013-07-17 23:41:00,
2013-07-17 19:46:00,85.0,78.9,30.14,West,270,0.0,0.0,82,0.00,,,0.00,Weather View 32 v70,2013-07-17 23:46:00,
2013-07-17 19:51:00,85.0,78.9,30.14,West,270,0.0,0.0,82,0.00,,,0.00,Weather View 32 v70,2013-07-17 23:51:00,
2013-07-17 20:01:00,85.0,78.9,30.14,West,270,0.0,0.0,82,0.00,,,0.00,Weather View 32 v70,2013-07-18 00:01:00,
2013-07-17 20:06:00,85.0,78.9,30.14,West,270,0.0,0.0,82,0.00,,,0.00,Weather View 32 v70,2013-07-18 00:06:00,
2013-07-17 20:11:00,85.0,78.9,30.14,West,270,0.0,0.0,82,0.00,,,0.00,Weather View 32 v70,2013-07-18 00:11:00,
2013-07-17 20:16:00,85.0,78.9,30.14,West,270,0.0,0.0,82,0.00,,,0.00,Weather View 32 v70,2013-07-18 00:16:00,
2013-07-17 20:21:00,84.0,77.9,30.15,West,270,0.0,0.0,82,0.00,,,0.00,Weather View 32 v70,2013-07-18 00:21:00,
2013-07-17 20:26:00,84.0,77.9,30.15,West,270,0.0,0.0,82,0.00,,,0.00,Weather View 32 v70,2013-07-18 00:26:00,
2013-07-17 20:36:00,84.0,77.9,30.15,West,270,0.0,0.0,82,0.00,,,0.00,Weather View 32 v70,2013-07-18 00:36:00,
2013-07-17 20:41:00,83.0,76.5,30.16,West,270,0.0,0.0,81,0.00,,,0.00,Weather View 32 v70,2013-07-18 00:41:00,
2013-07-17 20:46:00,83.0,76.5,30.16,West,270,0.0,0.0,81,0.00,,,0.00,Weather View 32 v70,2013-07-18 00:46:00,
2013-07-17 20:51:00,83.0,76.5,30.16,West,270,0.0,0.0,81,0.00,,,0.00,Weather View 32 v70,2013-07-18 00:51:00,
2013-07-17 21:01:00,83.0,76.5,30.16,West,270,0.0,0.0,81,0.00,,,0.00,Weather View 32 v70,2013-07-18 01:01:00,
2013-07-17 21:06:00,82.0,75.2,30.16,West,270,0.0,0.0,80,0.00,,,0.00,Weather View 32 v70,2013-07-18 01:06:00,
2013-07-17 21:11:00,82.0,75.2,30.16,West,270,0.0,0.0,80,0.00,,,0.00,Weather View 32 v70,2013-07-18 01:11:00,
2013-07-17 21:16:00,82.0,75.2,30.16,West,270,0.0,0.0,80,0.00,,,0.00,Weather View 32 v70,2013-07-18 01:16:00,
2013-07-17 21:21:00,82.0,75.2,30.16,West,270,0.0,0.0,80,0.00,,,0.00,Weather View 32 v70,2013-07-18 01:21:00,
2013-07-17 21:29:00,81.0,74.2,30.16,West,270,0.0,0.0,80,0.00,,,0.00,Weather View 32 v70,2013-07-18 01:29:00,
2013-07-17 21:36:00,81.0,74.2,30.16,West,270,0.0,0.0,80,0.00,,,0.00,Weather View 32 v70,2013-07-18 01:36:00,
2013-07-17 21:46:00,81.0,74.2,30.17,West,270,0.0,0.0,80,0.00,,,0.00,Weather View 32 v70,2013-07-18 01:46:00,
2013-07-17 21:51:00,80.0,72.9,30.18,West,270,0.0,0.0,79,0.00,,,0.00,Weather View 32 v70,2013-07-18 01:51:00,
2013-07-17 21:56:00,80.0,72.9,30.18,West,270,0.0,0.0,79,0.00,,,0.00,Weather View 32 v70,2013-07-18 01:56:00,
2013-07-17 22:01:00,80.0,72.9,30.17,West,270,0.0,0.0,79,0.00,,,0.00,Weather View 32 v70,2013-07-18 02:01:00,
2013-07-17 22:06:00,80.0,72.9,30.17,West,270,0.0,0.0,79,0.00,,,0.00,Weather View 32 v70,2013-07-18 02:06:00,
2013-07-17 22:11:00,80.0,72.9,30.18,West,270,0.0,0.0,79,0.00,,,0.00,Weather View 32 v70,2013-07-18 02:11:00,
2013-07-17 22:21:00,80.0,72.9,30.18,West,270,0.0,0.0,79,0.00,,,0.00,Weather View 32 v70,2013-07-18 02:21:00,
2013-07-17 22:26:00,80.0,72.9,30.18,West,270,0.0,0.0,79,0.00,,,0.00,Weather View 32 v70,2013-07-18 02:26:00,
2013-07-17 22:31:00,80.0,72.9,30.18,West,270,0.0,0.0,79,0.01,,,0.01,Weather View 32 v70,2013-07-18 02:31:00,
2013-07-17 22:36:00,80.0,72.9,30.18,West,270,0.0,0.0,79,0.01,,,0.01,Weather View 32 v70,2013-07-18 02:36:00,
2013-07-17 22:41:00,80.0,72.9,30.18,West,270,0.0,0.0,79,0.01,,,0.01,Weather View 32 v70,2013-07-18 02:41:00,
2013-07-17 22:46:00,80.0,72.9,30.18,West,270,0.0,0.0,79,0.01,,,0.01,Weather View 32 v70,2013-07-18 02:46:00,
2013-07-17 22:56:00,80.0,72.9,30.18,West,270,0.0,0.0,79,0.01,,,0.01,Weather View 32 v70,2013-07-18 02:56:00,
2013-07-17 23:01:00,80.0,72.9,30.18,West,270,0.0,0.0,79,0.01,,,0.01,Weather View 32 v70,2013-07-18 03:01:00,
2013-07-17 23:06:00,80.0,72.9,30.18,West,270,0.0,0.0,79,0.01,,,0.01,Weather View 32 v70,2013-07-18 03:06:00,
2013-07-17 23:11:00,80.0,72.9,30.18,West,270,0.0,0.0,79,0.01,,,0.01,Weather View 32 v70,2013-07-18 03:11:00,
2013-07-17 23:16:00,80.0,72.9,30.18,West,270,0.0,0.0,79,0.01,,,0.01,Weather View 32 v70,2013-07-18 03:16:00,
2013-07-17 23:26:00,80.0,72.9,30.18,West,270,0.0,0.0,79,0.01,,,0.01,Weather View 32 v70,2013-07-18 03:26:00,
2013-07-17 23:31:00,80.0,72.9,30.18,West,270,0.0,0.0,79,0.00,,,0.01,Weather View 32 v70,2013-07-18 03:31:00,
2013-07-17 23:36:00,80.0,72.9,30.18,West,270,0.0,0.0,79,0.00,,,0.01,Weather View 32 v70,2013-07-18 03:36:00,
2013-07-17 23:41:00,80.0,72.9,30.18,West,270,0.0,0.0,79,0.00,,,0.01,Weather View 32 v70,2013-07-18 03:41:00,
2013-07-17 23:46:00,80.0,72.9,30.18,West,270,0.0,0.0,79,0.00,,,0.01,Weather View 32 v70,2013-07-18 03:46:00,
2013-07-17 23:56:00,80.0,72.9,30.18,West,270,0.0,0.0,79,0.00,,,0.01,Weather View 32 v70,2013-07-18 03:56:00,